Regional Weather Roundup
Issued by NWS

Home | Current Version | Previous Version | Graphics & Text | Print | Product List | Glossary Off
Versions: 1 2 3 4 5 6 7 8 9 10 11 12 13 14 15 16 17 18 19 20 21 22 23 24 25 26 27 28 29 30 31 32 33 34 35 36 37 38 39 40 41 42 43 44 45 46 47 48 49 50

720
ASUS43 KMKX 271100
RWRWI

WISCONSIN REGIONAL WEATHER ROUNDUP
NATIONAL WEATHER SERVICE MILWAUKEE/SULLIVAN WI
600 AM CDT THU JUL 27 2017

NOTE: "FAIR" INDICATES FEW OR NO CLOUDS BELOW 12,000 FEET WITH NO
SIGNIFICANT WEATHER AND/OR OBSTRUCTIONS TO VISIBILITY.

WIZ001-002-006>008-014>016-023>028-271200-
NORTHWEST WISCONSIN

CITY           SKY/WX    TMP DP  RH WIND       PRES   REMARKS
SUPERIOR ARPT  NOT AVBL
ASHLAND        CLEAR     56  55  97 CALM      30.06S
HAYWARD        CLEAR     53  52  96 CALM      30.08R
SIREN          CLEAR     57  56  97 CALM      30.08R FOG
CUMBERLAND     CLEAR     61  59  94 CALM      30.07S
RICE LAKE      FOG       58  57  97 CALM      30.07S VSB 3/4
CHETEK         CLEAR     61  61 100 W3        30.06R
LADYSMITH      CLEAR     58  58  97 CALM      30.08R
EAU CLAIRE     NOT AVBL
MENOMONIE      CLEAR     62  62  98 CALM      30.05R
NEW RICHMOND   CLEAR     60  59  99 N5        30.06S
OSCEOLA        FOG       57  57 100 CALM      30.10R VSB 1/2
$$

WIZ003>005-009-010-017-018-271200-
NORTH CENTRAL WISCONSIN

CITY           SKY/WX    TMP DP  RH WIND       PRES   REMARKS
MANITOWISH WTR CLEAR     58  58 100 N3        30.07R
ARBOR VITAE    CLEAR     57  56  96 N7        30.06S
WOODRUFF       CLEAR     57  56  96 N7        30.06S
RHINELANDER    CLEAR     57  57 100 CALM      30.07R
EAGLE RIVER    CLEAR     52  52 100 CALM      30.06S
LAND O LAKES   MOCLDY    51  51 100 CALM      30.09S
PHILLIPS       FOG       53  53 100 CALM      30.06R VSB 3/4
TOMAHAWK         N/A     49  48  97 CALM      30.06S FOG
MEDFORD        CLEAR     55  55 100 CALM      30.05R
MERRILL        FOG       52  52 100 CALM      30.05S VSB 1
$$

WIZ029-030-035-036-043>047-271200-
CENTRAL WISCONSIN

CITY           SKY/WX    TMP DP  RH WIND       PRES   REMARKS
WAUSAU         CLEAR     60  59  96 NW6       30.03R
MOSINEE        CLEAR     61  59  94 N5        30.04S
MARSHFIELD     CLEAR     59  55  87 N5        30.03R
STEVENS POINT  CLEAR     56  56 100 N3        30.03R
WAUPACA        CLEAR     63  62  97 N5        30.01R
WAUTOMA        CLEAR     64  61  90 N3        30.01R
WISC RAPIDS    CLEAR     59  58  96 NE3       30.03S FOG
CAMP DOUGLAS   NOT AVBL
$$

WIZ011>013-019>022-031-037>040-048>050-271200-
NORTHEAST WISCONSIN

CITY           SKY/WX    TMP DP  RH WIND       PRES   REMARKS
ANTIGO         CLEAR     52  52 100 CALM      30.05R
SHAWANO        CLEAR     61  58  91 CALM      30.01R
OCONTO         CLEAR     60  59  99 CALM      29.99S
STURGEON BAY     N/A     63  62  97 MISG      30.01R
GREEN BAY      CLEAR     63  63 100 N5        30.00R
MANITOWOC      NOT AVBL
APPLETON       PTCLDY    64  63  94 N7        29.99R
CLINTONVILLE   CLEAR    N/A N/A N/A CALM      30.01R
OSHKOSH        CLEAR     67  65  93 N6        29.98R
$$

WIZ032>034-041-042-053>061-271200-
SOUTHWEST WISCONSIN

CITY           SKY/WX    TMP DP  RH WIND       PRES   REMARKS
LA CROSSE      CLEAR     67  65  93 NW7       30.01R
SPARTA         PTCLDY    56  56 100 CALM      30.02S FOG
VIROQUA        CLEAR     64  64 100 CALM      30.02R
BOSCOBEL       FOG       67  66  97 CALM      29.99R VSB<1/4
PRAIRIE DU CHI PTCLDY    69  68  94 CALM      29.98R
PLATTEVILLE    CLEAR     68  68 100 N6        29.98R
$$

WIZ056-057-062-063-064-067-068-271200-
SOUTH CENTRAL WISCONSIN

CITY           SKY/WX    TMP DP  RH WIND       PRES   REMARKS
REEDSBURG      FOG       65  65 100 CALM      29.99R VSB 3/4
BARABOO/DELLS  CLEAR     64  63  96 CALM      29.99R
LONE ROCK      FOG       65  65 100 CALM      29.98R VSB<1/4
MINERAL POINT  CLEAR     68  68 100 N9        29.98R
MADISON        PTCLDY    68  67  96 N3        29.96R FOG
MIDDLETON      CLEAR     69  69 100 CALM      29.97S
WATERTOWN      MOCLDY    66  66 100 CALM      29.95S FOG
MONROE         CLOUDY    70  68  94 N8        29.97R FOG
JANESVILLE     CLEAR     70  70 100 N6        29.94S FOG
$$

WIZ051-052-058>065-066-070>072-271200-
SOUTHEAST WISCONSIN

CITY           SKY/WX    TMP DP  RH WIND       PRES   REMARKS
MILWAUKEE      MOCLDY    70  69  97 N6        29.94S FOG
WAUKESHA       FOG       66  66 100 CALM      29.97S VSB 1
MILWAUKEE/TIMM FOG       68  64  88 CALM      29.96S VSB<1/4
RACINE         CLOUDY    70  69  97 NE5       29.96R FOG
KENOSHA        CLOUDY    70  68  93 CALM      29.95R FOG
FOND DU LAC    CLEAR     69  65  86 NE9       29.98R
SHEBOYGAN      CLEAR     66  66 100 N8        29.97R
WEST BEND      PTCLDY    68  68 100 CALM      29.96R FOG
JUNEAU         FOG       68  67  98 N12       29.97S VSB 3/4
$$

LSZ147-162-271200-
LAKE SUPERIOR

STATION/POSITION TIME  TEMP    WIND        PRES    WAVE
                       AIR SEA DIR/SP/G            HT/PER
                 (UTC) (F)     (DEG/KT/KT) (MB)    (FT/S)
W MID LAKE BUOY  0950   60 52  330/  6/  8 1016.9R   0
DEVILS ISLAND    1000   66     320/  8/  9 1017.5R
PORT WING        0940   59     160/  2/  3 1017.9R
SAXON HARBOR     1040   58     200/  4/  5 1017.3S
$$

LMZ867-665-643>646-271200-
LAKE MICHIGAN

STATION/POSITION TIME  TEMP    WIND        PRES    WAVE
                       AIR SEA DIR/SP/G            HT/PER
                 (UTC) (F)     (DEG/KT/KT) (MB)    (FT/S)
CHAMBERS ISLAND  1040   68     330/  8/ 10 1014.9R
S GREEN BAY BUOY 1030   69 71  360/ 10/ 12 1015.2R
N MID LAKE BUOY  0950   66 65  350/ 10/ 10 1015.2R   1/ 5
NORTHPORT PIER   1040   68     340/  6/  8 1015.2R
KEWAUNEE LAKESHO 1030   67     350/  4/  7 1014.3R
SHEBOYGAN LAKESH 1000   69     350/ 11/ 12 1013.6R
PORT WASHINGTON  1040   70      10/  3/  5 1014.9R
ATWATER BUOY     0909   69 69  330/  4/  4 1013.8R
MILWAUKEE LAKESH 1030   69      50/  1/  2   N/A
S MID LAKE BUOY  0950   71 71   30/ 10/ 12 1013.2R   0
KENOSHA   LAKESH 1000   70     360/  9/ 10 1013.5
$$

TC  - TEMPERATURE IN CELSIUS
VSB - VISIBILITY IN STATUTE MILES
WCI - WIND CHILL INDEX
HX  - HEAT INDEX





USA.gov is the U.S. government's official web portal to all federal, state and local government web resources and services.